Simultaneous Nadir Overpasses (SNOs) Predictions

Prediction of SNOs between GOES-17 and AQUA Satellite Orbit:

Table of predicted SNOs for the next 14.0 days since TLE Epoch: 2/25/2023
Index Date Time (GOES-17) GOES-17 Lat,Lon AQUA Lat,Lon Distance(km) Time Diff (sec)
1 02/25/2023 08:47:34 0.01,-104.69 0.13,-105.24 61.98 80
2 02/27/2023 08:31:30 0.02,-104.69 -0.56,-101.97 309.87 80
3 02/27/2023 20:52:36 -0.02,-104.70 -0.50,-107.08 270.66 80
4 03/01/2023 20:41:51 -0.02,-104.70 0.18,-103.81 101.56 80
5 03/02/2023 09:02:46 0.02,-104.70 0.92,-108.88 475.42 80
6 03/03/2023 20:28:25 -0.03,-104.70 0.84,-100.53 474.14 80
7 03/04/2023 08:49:21 0.03,-104.70 0.24,-105.60 102.84 80
8 03/06/2023 08:33:15 0.03,-104.71 -0.47,-102.33 270.33 80
9 03/06/2023 20:54:19 -0.03,-104.71 -0.61,-107.44 310.16 80
10 03/08/2023 20:43:32 -0.03,-104.72 0.10,-104.16 63.68 80
11 03/10/2023 20:30:04 -0.03,-104.73 0.79,-100.88 437.84 80
